Silver City, NM

4:29 AM MST on December 06, 2019 (GMT -0700)
Grant County

Weather History for KSVC - October, 2019

Change the Weather History Date:

Monday, October 7, 2019

  Actual Average (WUND) Record (WUND)
Temperature  
Mean Temperature 58 °F -  
Max Temperature 73 °F - - (-1)
Min Temperature 44 °F - - (-1)
Degree Days  
Heating Degree Days 6    
Growing Degree Days 8 (Base 50)    
Moisture  
Dew Point 46 °F    
Average Humidity 62    
Maximum Humidity 90    
Minimum Humidity 38    
Precipitation  
Precipitation 0.00 in - - ()
Sea Level Pressure  
Sea Level Pressure 30.28 in    
Wind  
Wind Speed 7 mph (SE)    
Max Wind Speed 16 mph    
Max Gust Speed 20 mph    
Visibility 10 miles    
Events      
Averages and records for this station are not official NWS values.
T = Trace of Precipitation, MM = Missing Value Source: NWS Daily Summary

Daily Weather History Graph

Daily Weather History Graph

Search for Another Location

Airport or City:

Astronomy

Oct. 07, 2019 Rise Set
Actual Time 7:10 AM MDT 6:49 PM MDT
Civil Twilight 6:46 AM MDT 7:14 PM MDT
Nautical Twilight 6:17 AM MDT 7:42 PM MDT
Astronomical Twilight 5:49 AM MDT 8:11 PM MDT
Moon 3:51 PM MDT (10/7) 1:30 AM MDT (10/7)
Length of Visible Light 12h 28m
Length of Day
11h 38m
Waxing Gibbous, 69% of the Moon is Illuminated
Oct 7
Waxing Gibbous
Oct 13
Full
Oct 21
Last Quarter
Oct 27
New
Nov 4
First Quarter

Hourly Weather History & Observations

Time (MDT) Temp. Windchill Dew Point Humidity Pressure Visibility Wind Dir Wind Speed Gust Speed Precip Events Conditions
12:15 AM 51.1 °F - 45.5 °F 81% 30.25 in 10.0 mi NNW 6.9 mph - N/A   Scattered Clouds
12:35 AM 50.9 °F - 45.3 °F 81% 30.25 in 10.0 mi North 5.8 mph - N/A   Clear
12:55 AM 49.8 °F - 44.8 °F 83% 30.25 in 10.0 mi NNW 5.8 mph - N/A   Clear
1:15 AM 49.1 °F - 44.8 °F 85% 30.25 in 10.0 mi NNW 6.9 mph - N/A   Clear
1:35 AM 50.0 °F - 45.1 °F 83% 30.26 in 10.0 mi Calm Calm - N/A   Clear
1:55 AM 53.6 °F - 43.3 °F 68% 30.28 in 10.0 mi SE 6.9 mph - N/A   Clear
2:15 AM 54.9 °F - 42.4 °F 63% 30.28 in 10.0 mi SSE 6.9 mph - N/A   Clear
2:35 AM 53.6 °F - 41.9 °F 65% 30.28 in 10.0 mi Calm Calm - N/A   Clear
2:55 AM 52.9 °F - 42.1 °F 67% 30.28 in 10.0 mi Calm Calm - N/A   Clear
3:15 AM 48.7 °F - 42.4 °F 79% 30.28 in 10.0 mi Calm Calm - N/A   Clear
3:35 AM 49.6 °F - 42.4 °F 76% 30.28 in 10.0 mi Calm Calm - N/A   Clear
3:55 AM 47.3 °F - 43.0 °F 85% 30.28 in 10.0 mi Calm Calm - N/A   Clear
4:15 AM 47.8 °F - 42.6 °F 82% 30.29 in 10.0 mi WNW 3.5 mph - N/A   Scattered Clouds
4:35 AM 47.7 °F - 42.4 °F 82% 30.29 in 10.0 mi WNW 4.6 mph - N/A   Mostly Cloudy
4:55 AM 47.7 °F - 42.6 °F 83% 30.29 in 10.0 mi WNW 5.8 mph - N/A   Mostly Cloudy
5:15 AM 46.4 °F 42.9 °F 42.6 °F 87% 30.29 in 10.0 mi NW 6.9 mph - N/A   Scattered Clouds
5:35 AM 46.4 °F 42.4 °F 42.3 °F 85% 30.30 in 10.0 mi NW 8.1 mph - N/A   Clear
5:55 AM 46.2 °F 42.2 °F 42.1 °F 85% 30.30 in 10.0 mi NW 8.1 mph - N/A   Clear
6:15 AM 45.3 °F 41.6 °F 41.9 °F 88% 30.31 in 10.0 mi NW 6.9 mph - N/A   Clear
6:35 AM 45.3 °F 42.3 °F 42.3 °F 89% 30.31 in 10.0 mi NNW 5.8 mph - N/A   Clear
6:55 AM 44.8 °F 41.6 °F 41.9 °F 90% 30.32 in 10.0 mi NW 5.8 mph - N/A   Clear
7:35 AM 47.7 °F - 43.7 °F 86% 30.34 in 10.0 mi West 4.6 mph - N/A   Clear
8:15 AM 52.5 °F - 45.1 °F 76% 30.36 in 10.0 mi Calm Calm - N/A   Clear
8:35 AM 54.3 °F - 45.5 °F 72% 30.36 in 10.0 mi Calm Calm - N/A   Clear
8:55 AM 56.3 °F - 45.7 °F 68% 30.38 in 10.0 mi Calm Calm - N/A   Clear
9:15 AM 59.4 °F - 45.7 °F 61% 30.38 in 10.0 mi ESE 6.9 mph - N/A   Clear
9:35 AM 62.4 °F - 45.5 °F 54% 30.38 in 10.0 mi ESE 11.5 mph - N/A   Clear
9:55 AM 63.3 °F - 45.3 °F 52% 30.38 in 10.0 mi ESE 12.7 mph - N/A   Clear
10:15 AM 64.6 °F - 45.3 °F 50% 30.38 in 10.0 mi SE 6.9 mph - N/A   Scattered Clouds
10:35 AM 65.3 °F - 47.3 °F 52% 30.37 in 10.0 mi SSE 16.1 mph 19.6 mph N/A   Clear
10:55 AM 65.8 °F - 47.3 °F 51% 30.37 in 10.0 mi SE 15.0 mph - N/A   Clear
11:15 AM 66.4 °F - 47.1 °F 50% 30.37 in 10.0 mi SE 11.5 mph - N/A   Clear
11:35 AM 66.9 °F - 46.8 °F 48% 30.36 in 10.0 mi SE 12.7 mph - N/A   Clear
11:55 AM 67.5 °F - 46.9 °F 48% 30.35 in 10.0 mi SSE 13.8 mph 19.6 mph N/A   Clear
12:15 PM 68.2 °F - 46.9 °F 47% 30.34 in 10.0 mi SSE 13.8 mph 18.4 mph N/A   Clear
12:35 PM 68.5 °F - 46.9 °F 46% 30.34 in 10.0 mi SE 13.8 mph - N/A   Clear
12:55 PM 69.4 °F - 46.9 °F 45% 30.33 in 10.0 mi SSE 13.8 mph - N/A   Clear
1:15 PM 69.8 °F - 46.9 °F 44% 30.31 in 10.0 mi SE 12.7 mph - N/A   Clear
1:35 PM 70.0 °F - 46.8 °F 43% 30.31 in 10.0 mi SE 10.4 mph 19.6 mph N/A   Clear
1:55 PM 70.7 °F - 46.9 °F 43% 30.29 in 10.0 mi SSE 13.8 mph 18.4 mph N/A   Clear
2:15 PM 71.4 °F - 47.1 °F 42% 30.28 in 10.0 mi SE 10.4 mph - N/A   Clear
2:35 PM 71.1 °F - 46.2 °F 41% 30.27 in 10.0 mi SSE 6.9 mph - N/A   Clear
2:55 PM 72.9 °F - 47.1 °F 40% 30.26 in 10.0 mi SE 10.4 mph - N/A   Clear
3:15 PM 73.0 °F - 46.8 °F 39% 30.26 in 10.0 mi SSE 11.5 mph 17.3 mph N/A   Clear
3:35 PM 72.7 °F - 46.9 °F 40% 30.25 in 10.0 mi SSE 9.2 mph 18.4 mph N/A   Clear
3:55 PM 73.2 °F - 46.4 °F 38% 30.24 in 10.0 mi SSE 11.5 mph - N/A   Clear
4:15 PM 73.2 °F - 46.4 °F 38% 30.23 in 10.0 mi ESE 12.7 mph 16.1 mph N/A   Clear
4:35 PM 73.4 °F - 46.4 °F 38% 30.23 in 10.0 mi SE 11.5 mph - N/A   Clear
4:55 PM 72.7 °F - 45.5 °F 38% 30.22 in 10.0 mi SE 9.2 mph 16.1 mph N/A   Clear
5:15 PM 72.7 °F - 45.7 °F 38% 30.22 in 10.0 mi SE 9.2 mph - N/A   Unknown
5:35 PM 72.0 °F - 45.7 °F 39% 30.21 in 10.0 mi SE 10.4 mph - N/A   Clear
5:55 PM 71.4 °F - 45.7 °F 40% 30.21 in 10.0 mi SSE 9.2 mph - N/A   Clear
6:15 PM 70.2 °F - 46.0 °F 42% 30.21 in 10.0 mi SSE 9.2 mph - N/A   Clear
6:35 PM 68.7 °F - 46.4 °F 45% 30.21 in 10.0 mi SE 8.1 mph - N/A   Clear
6:55 PM 66.7 °F - 47.1 °F 49% 30.21 in 10.0 mi SSE 6.9 mph - N/A   Clear
7:15 PM 65.1 °F - 47.7 °F 53% 30.21 in 10.0 mi SSE 5.8 mph - N/A   Clear
7:35 PM 63.5 °F - 48.2 °F 57% 30.21 in 10.0 mi SSE 5.8 mph - N/A   Clear
7:55 PM 62.1 °F - 48.2 °F 60% 30.21 in 10.0 mi SE 4.6 mph - N/A   Clear
8:15 PM 61.2 °F - 48.0 °F 62% 30.21 in 10.0 mi ESE 4.6 mph - N/A   Clear
8:35 PM 61.0 °F - 48.2 °F 63% 30.22 in 10.0 mi SE 5.8 mph - N/A   Clear
8:55 PM 60.3 °F - 48.2 °F 64% 30.22 in 10.0 mi SE 5.8 mph - N/A   Clear
9:15 PM 59.9 °F - 47.7 °F 64% 30.22 in 10.0 mi ESE 4.6 mph - N/A   Clear
9:35 PM 60.6 °F - 47.3 °F 61% 30.22 in 10.0 mi ESE 3.5 mph - N/A   Clear
9:55 PM 59.4 °F - 48.4 °F 67% 30.23 in 10.0 mi ENE 3.5 mph - N/A   Clear
10:15 PM 58.5 °F - 49.1 °F 71% 30.23 in 10.0 mi East 5.8 mph - N/A   Clear
10:35 PM 58.3 °F - 48.6 °F 70% 30.23 in 10.0 mi East 4.6 mph - N/A   Clear
11:15 PM 56.7 °F - 48.4 °F 74% 30.22 in 10.0 mi ENE 3.5 mph - N/A   Clear
11:35 PM 56.1 °F - 48.2 °F 75% 30.22 in 10.0 mi ENE 3.5 mph - N/A   Clear
11:55 PM 56.3 °F - 47.8 °F 73% 30.22 in 10.0 mi ENE 3.5 mph - N/A   Clear